OBJECT A, 63208

Orbit data source: Space-Track

You're viewing an Uncataloged Satellite

Recently launched and/or uncataloged satellites may have evolving metadata. Metadata may include but not limited to: Owner, Maufacturer, Bus, Motor, and Mission.

OBJECT A, 63208 is a satellite owned by Siwei (CN) in SSO that was launched on Sat, 15 Mar 2025 UTC via a CHANG ZHENG 2D launch vehicle from the Jiuquan Satellite Launch Center, China (JSC). Unknown objects in Earth's orbit typically refer to objects detected orbiting the Earth but have not yet been identified or cataloged. These objects could be anything from previously untracked satellites, spent rocket stages, debris from satellite collisions, or even natural meteoroids temporarily captured by Earth's gravity.

Loading next visibility...
Identifier
63208, 2025-051A
Orbit
SSO
Last TLE update
1 day ago
Origin
Flag of CNSIWEI (CN / PRC)
Manufacturer
SAST
Mission
Operational spacecraft
Bus & Motor
SIWEI, Unknown motor
Mass
~1,000 kg wet, ~700 kg dry
Launch date (UTC)
2025-03-15 (2 months ago)
Launch vehicle
CHANG ZHENG 2D
Launch site
Jiuquan Satellite Launch Center, China (JSC)
Object type
Unknown
Shape & HBR
Unknown
Radar Cross Section
Large (>1 m²)

Expand to show TLE details & history

TLE from 1 day ago
0 OBJECT A
1 63208U 25051A   25119.18579015  .00016237  00000-0  69551-3 0  9994
2 63208  97.4876 195.3696 0002689 134.6619 225.4837 15.22854834  6814
Epoch: 2025-04-29T04:27Z
Definitive object data (Epoch: 2025-04-29T04:27:32.268Z)
Latitude
-0.00005°
Longitude
-88.90392°
Altitude
501.623 km
Speed
7.613 km/s
True Right ascension
13h 01m 28s
True Declination
0° 00' 00"
Sunlit
Object was in full shadow at TLE epoch
Visualization TLE readout
Latitude
-40.72705°
Longitude
-81.20553°
Altitude
514.613 km
Speed
7.604 km/s
Apparent Right ascension
09h 52m 21s
Apparent Declination
-57° 48' 49"
Sunlit
Object is in full shadow
Visualization observer readout
Local Sidereal Time
17:48:29
Azimuth
223.944° SW
Elevation
-47.843°
Doppler factor
1
Orbital elements
Apogee altitude
496.048 km
Perigee altitude
492.352 km
Semi-major axis
6,872.337 km
Eccentricity
0.0002689
Inclination
97.4876°
RAAN
195.3696°
Arg. of periapsis
134.6619°
True anomaly
225.46173°
Mean anomaly
225.4837°
Eccentric anomaly
225.47272°
Mean motion
3.80966 °/min
BSTAR
0.00069551
Orbital period
94.5 mins
Loading maneuver chart data...
Loading SW <> Apogee altitude chart data...
Loading historical data...
Loading historical data...
Loading historical data...
Loading historical data...
Loading historical data...
Loading historical data...
Loading historical data...
Other satellites on launch #51 in the year 2025 (2025-03-15 UTC)

OBJECT A Visibility forecast

Observer location: undefined°, undefined°

Span
Click to sort rows by Start time (UTC) header in descending order
Start Az.
Max El. time (UTC)
Max El. Az.
Max El.
End time (UTC)
End Az.
5 mins2025-04-30 17:18:30.520Z45.637° ENE2025-04-30 17:20:30.520Z89.564° E24.868°2025-04-30 17:23:30.520Z153.989° SSE
4 mins2025-05-01 05:29:30.520Z208.517° SW2025-05-01 05:31:30.520Z283.303° WNW32.203°2025-05-01 05:33:30.520Z326.346° NNW
|